Flag for Germany Weather past 2 weeks in Zeitz, Saxony-Anhalt, Germany

Now
59 °F

Overcast.


Feels Like: 59 °F
Forecast: 50 / 67 °F
Wind: 1 mph from North

Location: Gera-Leumnitz

Current Time: Oct 1, 2014 at 2:52:15 AM

Latest Report: Oct 1, 2014 at 2:00 AM


Visibility: 4 mi

Pressure: 30.30 "Hg

Humidity: 95%

Dew point: 58 °F

Location of ZeitzLocation

Historic Weather in Zeitz — Graph

°F

Zeitz temperature yesterday

Maximum temperature yesterday: 69 °F (at 3:00 PM)
Minimum temperature yesterday: 58 °F (at 6:00 AM)
Average temperature yesterday: 62 °F

Past Weeks' High & Low Weather Summary

 TemperatureHumidityPressure
High74 °F (Sep 29, 4:00 PM)99% (Sep 16, 3:00 AM)30.40 "Hg (Sep 16, 3:00 AM)
Low41 °F (Sep 24, 7:00 AM)46% (Sep 29, 5:00 PM)29.85 "Hg (Sep 24, 6:00 PM)
Average58 °F83%30.08 "Hg
* Reported Sep 16 2:00 AM — Oct 1 2:00 AM, Zeitz, Weather by CustomWeather, © 2014

Note: Actual official high and low records may vary slightly from our data, if they occured in-between our weather recording intervals... More about our weather records

Advertising

Zeitz weather history for previous 24 hours

 ConditionsComfort  
Time TempWeatherWind HumidityBarometerVisibility
2:00 AM
Oct 1
59 °FOvercast.1 mph95%30.30 "Hg4 mi
1:00 AM59 °FLight freezing rain. Overcast.2 mph95%30.29 "Hg3 mi
12:00 AM59 °FOvercast.2 mph92%30.29 "Hg6 mi
11:00 PM
Sep 30
60 °FOvercast.2 mph91%30.29 "Hg6 mi
10:00 PM60 °FOvercast.2 mph87%30.28 "Hg9 mi
9:00 PM61 °FOvercast.2 mph85%30.28 "Hg19 mi
8:00 PM64 °FOvercast.2 mph75%30.27 "Hg25 mi
7:00 PM65 °FOvercast.1 mph75%30.26 "Hg22 mi
6:00 PM66 °FOvercast.2 mph71%30.24 "Hg25 mi
5:00 PM67 °FOvercast.3 mph66%30.24 "Hg22 mi
4:00 PM68 °FOvercast.3 mph63%30.24 "Hg22 mi
3:00 PM69 °FOvercast.5 mph60%30.24 "Hg28 mi
2:00 PM67 °FOvercast.5 mph68%30.25 "Hg22 mi
1:00 PM65 °FOvercast.5 mph75%30.26 "Hg19 mi
12:00 PM65 °FOvercast.3 mph77%30.25 "Hg19 mi
11:00 AM63 °FOvercast.2 mph81%30.26 "Hg17 mi
10:00 AM61 °FOvercast.1 mph87%30.25 "Hg19 mi
9:00 AM60 °FLow clouds.2 mph89%30.25 "Hg16 mi
8:00 AM59 °FOvercast.5 mph87%30.24 "Hg19 mi
7:00 AM58 °FOvercast.5 mph90%30.23 "Hg12 mi
6:00 AM58 °FLight rain. Overcast.3 mph89%30.24 "Hg10 mi
5:00 AM58 °FOvercast.2 mph89%30.24 "Hg11 mi
4:00 AM58 °FOvercast.2 mph89%30.24 "Hg12 mi
3:00 AM58 °FOvercast.3 mph88%30.24 "Hg11 mi
2:00 AM59 °FOvercast.3 mph86%30.24 "Hg12 mi
Weather by CustomWeather, © 2014

See weather overviewHow to use our weather pages